Weather reports worldwide

Advertisment
Strathallan, United Kingdom (3144): temperature & dewpoint: 11.08.2019 14:00:00 - 17.08.2019 14:00:00 (BST)Strathallan, United Kingdom (3144): temperature -20cm & temperature -100cm: 11.08.2019 14:00:00 - 17.08.2019 14:00:00 (BST)Strathallan, United Kingdom (3144): wind speed & gusts: 11.08.2019 14:00:00 - 17.08.2019 14:00:00 (BST)Strathallan, United Kingdom (3144): wind direction: 11.08.2019 14:00:00 - 17.08.2019 14:00:00 (BST)Strathallan, United Kingdom (3144): reduced air pressure: 11.08.2019 14:00:00 - 17.08.2019 14:00:00 (BST)Strathallan, United Kingdom (3144): visibility: 11.08.2019 14:00:00 - 17.08.2019 14:00:00 (BST)Strathallan, United Kingdom (3144): precipitation: 11.08.2019 14:00:00 - 17.08.2019 14:00:00 (BST)
Date & Time tt [°C] td [°C] tt -20cm [°C] tt -100cm [°C] ff [km/h] ff [kn] fx [km/h] fx [kn] dd ppp [hPa] vv [km] rr [mm]
17.08.2019 14:00:00 17,0 8,4 - - 31 17 63 34 SW 994,2 40 0,0
17.08.2019 13:00:00 17,0 9,3 - - 29 16 54 29 SW 994,0 45 0,0
17.08.2019 12:00:00 15,0 9,1 - - 22 12 54 29 WSW 994,0 35 0,0
17.08.2019 11:00:00 16,2 10,3 - - 28 15 50 27 SW 993,4 30 0,2
17.08.2019 10:00:00 14,1 10,4 16,5 16,2 29 16 50 27 SW 993,4 17 0,4
17.08.2019 09:00:00 12,3 9,6 - - 18 10 - - WSW 993,5 2,3 2,2
17.08.2019 08:00:00 12,5 10,9 - - 15 8 - - SW 993,0 25 0,0
17.08.2019 07:00:00 12,1 10,4 - - 21 11 - - SW 992,5 40 0,0
17.08.2019 06:00:00 12,8 11,2 - - 21 11 - - SW 991,8 40 0,0
17.08.2019 05:00:00 13,6 12,1 - - 16 9 - - SW 991,3 45 0,0
17.08.2019 04:00:00 13,4 12,5 - - 5 3 - - WSW 991,4 21 0,0
17.08.2019 03:00:00 13,4 12,5 - - 15 8 - - SW 991,6 30 0,6
17.08.2019 02:00:00 13,3 12,5 - - 2 1 - - S 991,6 11 0,0
17.08.2019 01:00:00 14,3 13,6 - - 8 4 - - SW 991,9 24 0,4
17.08.2019 00:00:00 13,3 12,6 - - 2 1 - - WNW 992,2 16 0,0
16.08.2019 23:00:00 14,4 13,4 - - 4 2 - - NNW 992,4 22 0,0
16.08.2019 22:00:00 15,3 14,2 - - 4 2 - - S 992,5 21 0,0
16.08.2019 21:00:00 15,7 14,2 - - 8 4 - - SSE 992,3 30 0,0
16.08.2019 20:00:00 16,0 14,4 - - 8 4 - - WSW 992,7 19 0,2
16.08.2019 19:00:00 16,7 13,5 - - 16 9 - - SW 993,6 4,9 0,4
16.08.2019 18:00:00 19,5 14,5 - - 11 6 - - WSW 993,8 35 0,0
16.08.2019 17:00:00 18,2 14,8 - - 18 10 - - WSW 994,4 22 0,0
16.08.2019 16:00:00 19,0 14,6 - - 18 10 - - SW 994,4 40 0,0
16.08.2019 15:00:00 18,3 14,8 - - 16 9 - - SW 995,3 30 0,0
16.08.2019 14:00:00 17,4 14,7 - - 16 9 - - SSW 996,1 35 0,0
16.08.2019 13:00:00 17,5 14,8 - - 18 10 - - SSW 996,5 50 0,0
16.08.2019 12:00:00 15,9 13,9 - - 15 8 - - SSW 997,4 50 0,2
16.08.2019 11:00:00 15,2 13,4 - - 21 11 - - SSW 998,3 6 0,0
16.08.2019 10:00:00 15,1 13,8 16,7 16,4 13 7 - - S 999,6 7 1,2
16.08.2019 09:00:00 14,4 13,4 - - 8 4 - - SSW 1000,9 12 2,6
16.08.2019 08:00:00 14,5 13,1 - - 13 7 - - S 1001,9 9 2,4
16.08.2019 07:00:00 14,8 14,0 - - 9 5 - - S 1002,6 13 0,8
16.08.2019 06:00:00 13,8 13,0 - - 4 2 - - W 1003,8 10 1,2
16.08.2019 05:00:00 13,3 12,8 - - 4 2 - - E 1005,0 30 0,0
16.08.2019 04:00:00 13,3 12,7 - - 5 3 - - NNW 1006,1 13 0,0
16.08.2019 03:00:00 13,1 12,4 - - 5 3 - - W 1007,3 9 0,2
16.08.2019 02:00:00 13,4 12,6 - - 11 6 - - SW 1008,2 35 0,6
16.08.2019 01:00:00 13,0 11,7 - - 9 5 - - SW 1008,7 3,0 0,0
16.08.2019 00:00:00 13,3 10,7 - - 5 3 - - ENE 1009,2 45 0,0
15.08.2019 23:00:00 12,8 10,6 - - 2 1 - - SE 1010,0 45 0,0
15.08.2019 22:00:00 12,9 9,5 - - 2 1 - - W 1010,2 50 0,0
15.08.2019 21:00:00 13,9 9,1 - - 4 2 - - S 1010,3 40 0,0
15.08.2019 20:00:00 15,1 8,1 - - 15 8 - - WSW 1010,3 45 0,0
15.08.2019 19:00:00 16,7 7,6 - - 18 10 - - WSW 1010,0 45 0,0
15.08.2019 18:00:00 18,0 7,3 - - 21 11 - - W 1009,5 30 0,0
15.08.2019 17:00:00 18,5 6,9 - - 15 8 - - W 1009,2 45 0,0
15.08.2019 16:00:00 18,4 6,1 - - 26 14 46 25 W 1008,9 50 0,0
15.08.2019 15:00:00 19,0 7,0 - - 26 14 - - W 1008,5 50 0,0
15.08.2019 14:00:00 17,5 7,6 - - 16 9 - - WNW 1007,9 29 0,0
15.08.2019 13:00:00 18,0 8,9 - - 28 15 46 25 W 1007,0 50 0,0
15.08.2019 12:00:00 16,3 9,9 - - 24 13 - - W 1005,9 40 0,0
15.08.2019 11:00:00 16,3 10,6 - - 24 13 - - W 1004,6 50 0,0
15.08.2019 10:00:00 16,9 12,3 16,2 16,5 28 15 - - W 1003,6 30 0,0
15.08.2019 09:00:00 15,1 12,6 - - 21 11 - - WSW 1002,5 50 0,0
15.08.2019 08:00:00 14,9 14,1 - - 15 8 - - WSW 1001,4 4,0 0,0
15.08.2019 07:00:00 13,3 12,6 - - 11 6 - - WSW 1000,6 30 0,0
15.08.2019 06:00:00 12,9 12,4 - - 11 6 - - WSW 1000,0 24 0,0
15.08.2019 05:00:00 13,2 12,8 - - 5 3 - - W 999,6 14 0,0
15.08.2019 04:00:00 13,4 12,8 - - 11 6 - - SW 999,6 8 0,0
15.08.2019 03:00:00 13,3 12,9 - - 9 5 - - WSW 999,7 17 0,0
15.08.2019 02:00:00 13,5 12,9 - - 15 8 - - SW 999,8 25 0,0
15.08.2019 01:00:00 13,9 13,7 - - 5 3 - - SW 1000,0 7 0,6
15.08.2019 00:00:00 13,8 13,5 - - 0 0 - - N 1000,2 3,8 0,2
14.08.2019 23:00:00 13,8 13,5 - - 4 2 - - SSW 1000,7 5 1,8
14.08.2019 22:00:00 13,8 13,3 - - 2 1 - - W 1001,3 3,1 2,8
14.08.2019 21:00:00 14,0 13,2 - - 4 2 - - WSW 1002,0 15 0,2
14.08.2019 20:00:00 15,3 13,0 - - 4 2 - - WSW 1002,3 45 0,0
14.08.2019 19:00:00 15,6 12,3 - - 4 2 - - NNE 1003,0 50 0,0
14.08.2019 18:00:00 16,1 11,8 - - 5 3 - - E 1003,7 25 0,0
14.08.2019 17:00:00 17,0 11,2 - - 5 3 - - ESE 1004,4 50 0,0
14.08.2019 16:00:00 16,6 10,0 - - 8 4 - - SE 1005,2 50 0,0
14.08.2019 15:00:00 16,0 10,5 - - 8 4 - - E 1006,0 50 0,0
14.08.2019 14:00:00 16,2 10,9 - - 5 3 - - NE 1006,6 50 0,0
14.08.2019 13:00:00 15,0 10,6 - - 8 4 - - NNE 1007,5 40 0,0
14.08.2019 12:00:00 13,8 10,1 - - 4 2 - - ENE 1008,2 45 0,0
14.08.2019 11:00:00 12,4 9,5 - - 5 3 - - NNE 1008,9 35 0,0
14.08.2019 10:00:00 10,6 8,7 16,2 16,7 5 3 - - E 1009,5 40 0,0
14.08.2019 09:00:00 9,6 8,6 - - 8 4 - - ENE 1010,1 40 0,0
14.08.2019 08:00:00 8,7 8,5 - - 4 2 - - WNW 1010,3 18 0,0
14.08.2019 07:00:00 8,1 7,9 - - 2 1 - - WNW 1010,9 27 0,0
14.08.2019 06:00:00 7,5 7,3 - - 4 2 - - SW 1011,2 20 0,0
14.08.2019 05:00:00 7,0 6,8 - - 2 1 - - NW 1011,5 20 0,0
14.08.2019 04:00:00 6,6 6,3 - - 0 0 - - N 1012,0 14 0,0
14.08.2019 03:00:00 6,7 6,3 - - 2 1 - - W 1012,8 29 0,0
14.08.2019 02:00:00 6,7 6,3 - - 4 2 - - WSW 1013,0 21 0,0
14.08.2019 01:00:00 6,7 6,1 - - 5 3 - - W 1013,2 40 0,0
14.08.2019 00:00:00 7,3 6,6 - - 4 2 - - W 1013,3 45 0,0
13.08.2019 23:00:00 7,5 5,9 - - 4 2 - - W 1013,3 45 0,0
13.08.2019 22:00:00 9,1 6,9 - - 5 3 - - WSW 1013,3 50 0,0
13.08.2019 21:00:00 11,7 7,2 - - 9 5 - - WSW 1013,3 45 0,0
13.08.2019 20:00:00 13,5 7,3 - - 16 9 - - W 1013,2 50 0,0
13.08.2019 19:00:00 15,0 6,2 - - 18 10 - - W 1013,0 45 0,0
13.08.2019 18:00:00 16,6 6,3 - - 18 10 - - W 1013,0 35 0,0
13.08.2019 17:00:00 16,8 7,5 - - 21 11 - - WNW 1012,9 40 0,0
13.08.2019 16:00:00 15,9 7,3 - - 26 14 50 27 W 1012,9 30 0,0
13.08.2019 15:00:00 18,4 8,2 - - 21 11 - - SW 1012,4 45 0,0
13.08.2019 14:00:00 17,3 8,3 - - 18 10 - - SW 1012,6 50 0,0
13.08.2019 13:00:00 17,1 6,5 - - 26 14 - - WSW 1012,8 35 0,0
13.08.2019 12:00:00 15,4 9,4 - - 8 4 - - WSW 1013,0 45 0,0
13.08.2019 11:00:00 13,6 9,8 - - 8 4 - - WSW 1013,2 50 0,0
13.08.2019 10:00:00 14,3 10,1 16,5 16,7 16 9 - - SW 1013,2 35 0,0
13.08.2019 09:00:00 12,2 10,0 - - 15 8 - - WSW 1013,4 50 0,0
13.08.2019 08:00:00 10,3 10,0 - - 11 6 - - WSW 1013,5 50 0,0
13.08.2019 07:00:00 7,4 7,1 - - 5 3 - - W 1013,2 30 0,0
13.08.2019 06:00:00 6,7 6,4 - - 5 3 - - SW 1013,2 35 0,0
13.08.2019 05:00:00 6,9 6,5 - - 4 2 - - WNW 1013,1 35 0,0
13.08.2019 04:00:00 6,7 6,2 - - 5 3 - - W 1013,2 35 0,0
13.08.2019 03:00:00 7,1 6,5 - - 5 3 - - WSW 1013,2 22 0,0
13.08.2019 02:00:00 7,6 6,9 - - 5 3 - - W 1013,1 30 0,0
13.08.2019 01:00:00 8,4 7,9 - - 8 4 - - WSW 1013,2 35 0,0
13.08.2019 00:00:00 8,9 8,3 - - 8 4 - - WSW 1013,3 40 0,0
12.08.2019 23:00:00 9,8 9,0 - - 11 6 - - WSW 1013,0 50 0,0
12.08.2019 22:00:00 10,9 9,3 - - 9 5 - - SW 1012,8 50 0,0
12.08.2019 21:00:00 12,2 10,2 - - 8 4 - - WSW 1012,7 50 0,0
12.08.2019 20:00:00 13,2 10,1 - - 8 4 - - SW 1012,4 50 0,0
12.08.2019 19:00:00 14,4 9,8 - - 15 8 - - SW 1012,1 50 0,0
12.08.2019 18:00:00 14,8 9,0 - - 15 8 - - SW 1011,9 40 0,0
12.08.2019 17:00:00 16,1 10,3 - - 18 10 - - SW 1012,0 35 0,0
12.08.2019 16:00:00 15,5 8,7 - - 18 10 - - SW 1012,1 45 0,0
12.08.2019 15:00:00 16,0 8,2 - - 16 9 - - SW 1011,9 50 0,0
12.08.2019 14:00:00 16,6 5,8 - - 11 6 - - WSW 1011,9 35 0,0
12.08.2019 13:00:00 16,4 5,5 - - 13 7 - - WSW 1012,0 29 0,0
12.08.2019 12:00:00 15,9 8,8 - - 13 7 - - SW 1012,1 45 0,0
12.08.2019 11:00:00 14,7 6,6 - - 8 4 - - W 1012,2 35 0,0
12.08.2019 10:00:00 12,5 8,0 16,9 16,7 13 7 - - SW 1012,4 35 0,0
12.08.2019 09:00:00 11,6 8,5 - - 8 4 - - SW 1012,2 40 0,0
12.08.2019 08:00:00 9,7 8,6 - - 9 5 - - WSW 1012,0 35 0,0
12.08.2019 07:00:00 7,5 6,9 - - 4 2 - - SW 1011,6 40 0,0
12.08.2019 06:00:00 7,8 7,2 - - 9 5 - - WSW 1011,4 30 0,0
12.08.2019 05:00:00 8,6 8,1 - - 5 3 - - WSW 1011,1 18 0,0
12.08.2019 04:00:00 9,3 8,6 - - 0 0 - - N 1011,0 20 0,0
12.08.2019 03:00:00 9,7 9,0 - - 5 3 - - WSW 1011,0 30 0,2
12.08.2019 02:00:00 9,7 9,1 - - 5 3 - - W 1011,1 16 0,0
12.08.2019 01:00:00 9,8 9,1 - - 5 3 - - W 1011,0 30 0,0
12.08.2019 00:00:00 10,1 9,2 - - 4 2 - - SW 1010,7 30 0,0
11.08.2019 23:00:00 10,0 8,9 - - 5 3 - - SSW 1010,4 17 0,2
11.08.2019 22:00:00 10,5 8,2 - - 5 3 - - N 1009,9 20 0,2
11.08.2019 21:00:00 11,2 8,9 - - 5 3 - - N 1009,5 23 0,0
11.08.2019 20:00:00 11,5 9,3 - - 5 3 - - N 1009,0 24 0,2
11.08.2019 19:00:00 11,5 10,1 - - 8 4 - - NNE 1008,4 12 0,6
11.08.2019 18:00:00 12,0 10,8 - - 4 2 - - NE 1007,9 13 0,6
11.08.2019 17:00:00 12,6 11,4 - - 9 5 - - N 1007,4 21 1,4
11.08.2019 16:00:00 12,9 11,5 - - 8 4 - - N 1007,1 9 1,6
11.08.2019 15:00:00 13,7 11,9 - - 8 4 - - ENE 1006,7 22 0,4
11.08.2019 14:00:00 14,4 11,1 - - 9 5 - - N 1006,1 35 0,0

tt = temperature
td = dewpoint
tt -20cm = temperature -20cm
tt -100cm = temperature -100cm
ff = wind speed
fx = gusts
dd = wind direction
ppp = reduced air pressure
vv = visibility
rr = precipitation

Next stations